• en France
  • Liste des pays
  • À 7 jours
  • Température de l'eau
  • Carte satellitaire
  • Carte météo
  • Widgets météo
  • user-avatar
    Se connecter

    Météo par heure à Kostek

    Ce jour, 22 Août, Mercredi

    Heure Température Précipitation Vent Pression Humidité
    00:00 +23°C° 0 mm 5 m/s 760 mmHg 74%
    01:00 +23°C° 0 mm 4 m/s 760 mmHg 74%
    02:00 +22°C° 0 mm 4 m/s 760 mmHg 74%
    03:00 +21°C° 0 mm 3 m/s 760 mmHg 79%
    04:00 +22°C° 0 mm 3 m/s 760 mmHg 77%
    05:00 +22°C° 0 mm 3 m/s 760 mmHg 75%
    06:00 +23°C° 0 mm 2 m/s 760 mmHg 73%
    07:00 +25°C° 0 mm 2 m/s 760 mmHg 65%
    08:00 +27°C° 0 mm 2 m/s 760 mmHg 56%
    09:00 +30°C° 0 mm 2 m/s 760 mmHg 47%
    10:00 +31°C° 0 mm 3 m/s 759 mmHg 43%
    11:00 +33°C° 0 mm 3 m/s 759 mmHg 39%
    12:00 +35°C° 0 mm 3 m/s 759 mmHg 35%
    13:00 +35°C° 0 mm 3 m/s 759 mmHg 34%
    14:00 +35°C° 0 mm 3 m/s 759 mmHg 33%
    15:00 +36°C° 0 mm 4 m/s 758 mmHg 32%
    16:00 +35°C° 0 mm 3 m/s 759 mmHg 35%
    17:00 +34°C° 0 mm 3 m/s 759 mmHg 37%
    18:00 +33°C° 0 mm 3 m/s 759 mmHg 40%
    19:00 +30°C° 0 mm 3 m/s 759 mmHg 44%
    20:00 +28°C° 0 mm 2 m/s 759 mmHg 49%
    21:00 +26°C° 0 mm 2 m/s 760 mmHg 53%
    22:00 +26°C° 0 mm 2 m/s 760 mmHg 53%
    23:00 +25°C° 0 mm 2 m/s 760 mmHg 53%

    Demain, 23 Août, Jeudi

    Heure Température Précipitation Vent Pression Humidité
    00:00 +25°C° 0 mm 2 m/s 760 mmHg 53%
    01:00 +25°C° 0 mm 2 m/s 760 mmHg 54%
    02:00 +24°C° 0 mm 3 m/s 760 mmHg 55%
    03:00 +24°C° 0 mm 3 m/s 760 mmHg 55%
    04:00 +24°C° 0 mm 3 m/s 760 mmHg 55%
    05:00 +24°C° 0 mm 2 m/s 760 mmHg 54%
    06:00 +25°C° 0 mm 2 m/s 761 mmHg 54%
    07:00 +27°C° 0 mm 2 m/s 761 mmHg 47%
    08:00 +30°C° 0 mm 3 m/s 761 mmHg 41%
    09:00 +33°C° 0 mm 3 m/s 761 mmHg 34%
    10:00 +34°C° 0 mm 3 m/s 761 mmHg 31%
    11:00 +35°C° 0 mm 3 m/s 761 mmHg 28%
    12:00 +36°C° 0 mm 3 m/s 761 mmHg 25%
    13:00 +37°C° 0 mm 4 m/s 761 mmHg 25%
    14:00 +37°C° 0 mm 4 m/s 761 mmHg 25%
    15:00 +37°C° 0 mm 4 m/s 761 mmHg 25%
    16:00 +35°C° 0 mm 4 m/s 761 mmHg 30%
    17:00 +34°C° 0 mm 4 m/s 761 mmHg 36%
    18:00 +32°C° 0 mm 5 m/s 761 mmHg 41%
    19:00 +29°C° 0 mm 4 m/s 762 mmHg 49%
    20:00 +27°C° 0 mm 4 m/s 762 mmHg 57%
    21:00 +26°C° 0 mm 3 m/s 762 mmHg 64%
    22:00 +25°C° 0 mm 3 m/s 763 mmHg 67%
    23:00 +25°C° 0 mm 3 m/s 763 mmHg 70%

    Après-demain, 24 Août, Vendredi

    Heure Température Précipitation Vent Pression Humidité
    00:00 +25°C° 0 mm 4 m/s 763 mmHg 73%
    01:00 +23°C° 0 mm 4 m/s 763 mmHg 74%
    02:00 +23°C° 0 mm 4 m/s 763 mmHg 74%
    03:00 +23°C° 0 mm 4 m/s 762 mmHg 75%
    04:00 +23°C° 0 mm 4 m/s 763 mmHg 72%
    05:00 +23°C° 0 mm 4 m/s 763 mmHg 70%
    06:00 +25°C° 0 mm 4 m/s 763 mmHg 68%
    07:00 +26°C° 0 mm 5 m/s 763 mmHg 60%
    08:00 +28°C° 0 mm 6 m/s 762 mmHg 52%
    09:00 +30°C° 0 mm 7 m/s 762 mmHg 44%
    10:00 +32°C° 0 mm 7 m/s 762 mmHg 43%
    11:00 +32°C° 0 mm 8 m/s 762 mmHg 41%
    12:00 +33°C° 0 mm 8 m/s 762 mmHg 39%
    13:00 +33°C° 0 mm 8 m/s 762 mmHg 40%
    14:00 +32°C° 0 mm 8 m/s 761 mmHg 41%
    15:00 +32°C° 0 mm 8 m/s 761 mmHg 42%
    16:00 +31°C° 0 mm 8 m/s 761 mmHg 45%
    17:00 +29°C° 0 mm 7 m/s 761 mmHg 48%
    18:00 +27°C° 0 mm 7 m/s 761 mmHg 52%
    19:00 +26°C° 0 mm 6 m/s 761 mmHg 55%
    20:00 +25°C° 0 mm 5 m/s 761 mmHg 59%
    21:00 +23°C° 0 mm 4 m/s 762 mmHg 62%
    22:00 +23°C° 0 mm 4 m/s 761 mmHg 63%
    23:00 +23°C° 0 mm 4 m/s 761 mmHg 63%

    25 Août, Samedi

    Heure Température Précipitation Vent Pression Humidité
    00:00 +23°C° 0 mm 4 m/s 761 mmHg 64%
    01:00 +22°C° 0 mm 4 m/s 761 mmHg 64%
    02:00 +22°C° 0 mm 4 m/s 760 mmHg 65%
    03:00 +22°C° 0 mm 3 m/s 760 mmHg 65%
    04:00 +22°C° 0 mm 3 m/s 760 mmHg 64%
    05:00 +22°C° 0 mm 3 m/s 760 mmHg 63%
    06:00 +22°C° 0 mm 3 m/s 760 mmHg 63%
    07:00 +26°C° 0 mm 4 m/s 760 mmHg 54%
    08:00 +28°C° 0 mm 5 m/s 760 mmHg 45%
    09:00 +30°C° 0 mm 5 m/s 760 mmHg 37%
    10:00 +32°C° 0 mm 6 m/s 759 mmHg 34%
    11:00 +33°C° 0 mm 6 m/s 759 mmHg 32%
    12:00 +34°C° 0 mm 7 m/s 759 mmHg 30%
    13:00 +34°C° 0 mm 7 m/s 759 mmHg 31%
    14:00 +34°C° 0 mm 7 m/s 758 mmHg 32%
    15:00 +34°C° 0 mm 7 m/s 758 mmHg 33%
    16:00 +33°C° 0 mm 7 m/s 758 mmHg 36%
    17:00 +30°C° 0 mm 6 m/s 758 mmHg 40%
    18:00 +29°C° 0 mm 6 m/s 758 mmHg 44%
    19:00 +28°C° 0 mm 5 m/s 759 mmHg 50%
    20:00 +26°C° 0 mm 5 m/s 759 mmHg 55%
    21:00 +25°C° 0 mm 4 m/s 759 mmHg 61%
    22:00 +25°C° 0 mm 4 m/s 759 mmHg 63%
    23:00 +23°C° 0 mm 4 m/s 759 mmHg 64%

    26 Août, Dimanche

    Heure Température Précipitation Vent Pression Humidité
    00:00 +24°C° 0 mm 3 m/s 758 mmHg 66%
    01:00 +24°C° 0 mm 3 m/s 758 mmHg 67%
    02:00 +22°C° 0 mm 3 m/s 758 mmHg 69%
    03:00 +22°C° 0 mm 3 m/s 758 mmHg 70%
    04:00 +23°C° 0 mm 2 m/s 758 mmHg 69%
    05:00 +23°C° 0 mm 2 m/s 758 mmHg 69%
    06:00 +23°C° 0 mm 2 m/s 758 mmHg 68%
    07:00 +26°C° 0 mm 3 m/s 758 mmHg 56%
    08:00 +29°C° 0 mm 3 m/s 758 mmHg 44%
    09:00 +32°C° 0 mm 4 m/s 758 mmHg 32%
    10:00 +33°C° 0 mm 5 m/s 758 mmHg 29%
    11:00 +35°C° 0 mm 5 m/s 757 mmHg 26%
    12:00 +36°C° 0 mm 6 m/s 757 mmHg 23%
    13:00 +35°C° 0 mm 7 m/s 757 mmHg 24%
    14:00 +35°C° 0 mm 7 m/s 757 mmHg 26%
    15:00 +35°C° 0 mm 7 m/s 756 mmHg 27%
    16:00 +33°C° 0 mm 7 m/s 756 mmHg 31%
    17:00 +32°C° 0 mm 7 m/s 757 mmHg 35%
    18:00 +29°C° 0 mm 6 m/s 757 mmHg 39%
    19:00 +28°C° 0 mm 5 m/s 757 mmHg 47%
    20:00 +27°C° 0 mm 5 m/s 757 mmHg 54%
    21:00 +25°C° 0 mm 4 m/s 757 mmHg 62%
    22:00 +25°C° 0,1 mm 4 m/s 757 mmHg 64%
    23:00 +25°C° 0,1 mm 4 m/s 757 mmHg 66%

    27 Août, Lundi

    Heure Température Précipitation Vent Pression Humidité
    00:00 +24°C° 0,1 mm 3 m/s 757 mmHg 69%
    01:00 +24°C° 0 mm 3 m/s 757 mmHg 70%
    02:00 +24°C° 0 mm 3 m/s 757 mmHg 72%
    03:00 +24°C° 0 mm 3 m/s 757 mmHg 74%
    04:00 +24°C° 0 mm 3 m/s 757 mmHg 73%
    05:00 +24°C° 0 mm 2 m/s 757 mmHg 72%
    06:00 +24°C° 0 mm 2 m/s 757 mmHg 71%
    07:00 +26°C° 0 mm 3 m/s 757 mmHg 60%
    08:00 +29°C° 0 mm 3 m/s 757 mmHg 49%
    09:00 +32°C° 0 mm 4 m/s 757 mmHg 39%
    10:00 +33°C° 0 mm 4 m/s 757 mmHg 35%
    11:00 +34°C° 0 mm 5 m/s 757 mmHg 32%
    12:00 +35°C° 0 mm 5 m/s 757 mmHg 29%
    13:00 +35°C° 0 mm 5 m/s 757 mmHg 30%
    14:00 +35°C° 0 mm 6 m/s 757 mmHg 31%
    15:00 +35°C° 0 mm 6 m/s 757 mmHg 32%
    16:00 +33°C° 0 mm 6 m/s 757 mmHg 37%
    17:00 +32°C° 0 mm 5 m/s 757 mmHg 42%
    18:00 +29°C° 0 mm 5 m/s 758 mmHg 47%
    19:00 +27°C° 0 mm 4 m/s 758 mmHg 54%
    20:00 +26°C° 0 mm 3 m/s 758 mmHg 61%
    21:00 +24°C° 0 mm 3 m/s 759 mmHg 68%
    22:00 +24°C° 0 mm 2 m/s 759 mmHg 70%
    23:00 +23°C° 0 mm 2 m/s 759 mmHg 72%
    Voir plus